This is the latest recevied weather packets stored in our database for station/object YO2LDK-13. If no packets are shown the sender has not sent any weather packets the latest 10 day(s).
| Time | Temp. | Humidity | Pressure | Rain* | Wind** | Luminosity | Snow |
|---|---|---|---|---|---|---|---|
| 1777456520 | 17.22° C | 32% | 1009.8 hPa | 0 mm | - | 487 W/m² | - |
| 1777455620 | 17.22° C | 32% | 1009.8 hPa | 0 mm | - | 285 W/m² | - |
| 1777455320 | 16.67° C | 31% | 1009.5 hPa | 0 mm | - | 246 W/m² | - |
| 1777455019 | 16.11° C | 33% | 1009.8 hPa | 0 mm | - | 250 W/m² | - |
| 1777454719 | 15.56° C | 33% | 1009.8 hPa | 0 mm | - | 182 W/m² | - |
| 1777454420 | 15.56° C | 35% | 1009.8 hPa | 0 mm | - | 175 W/m² | - |
| 1777454120 | 15° C | 34% | 1009.8 hPa | 0 mm | - | 168 W/m² | - |
| 1777453819 | 15° C | 34% | 1010.2 hPa | 0 mm | - | 174 W/m² | - |
| 1777453520 | 15° C | 34% | 1010.2 hPa | 0 mm | - | 162 W/m² | - |
| 1777453220 | 15° C | 35% | 1010.2 hPa | 0 mm | - | 167 W/m² | - |
| 1777452921 | 14.44° C | 36% | 1009.8 hPa | 0 mm | - | 170 W/m² | - |
| 1777452620 | 14.44° C | 35% | 1010.2 hPa | 0 mm | - | 149 W/m² | - |
| 1777452020 | 14.44° C | 36% | 1010.2 hPa | 0 mm | - | 158 W/m² | - |
| 1777451719 | 14.44° C | 37% | 1009.8 hPa | 0 mm | - | 173 W/m² | - |
| 1777451420 | 13.89° C | 36% | 1010.2 hPa | 0 mm | - | 142 W/m² | - |
| 1777451120 | 13.89° C | 37% | 1009.8 hPa | 0 mm | - | 132 W/m² | - |
| 1777450819 | 13.89° C | 36% | 1009.8 hPa | 0 mm | - | 133 W/m² | - |
| 1777450519 | 13.89° C | 36% | 1010.2 hPa | 0 mm | - | 141 W/m² | - |
| 1777450220 | 13.33° C | 37% | 1009.8 hPa | 0 mm | - | 142 W/m² | - |
| 1777449919 | 13.33° C | 39% | 1009.5 hPa | 0 mm | - | 128 W/m² | - |
| 1777449619 | 13.33° C | 37% | 1009.8 hPa | 0 mm | - | 112 W/m² | - |
| 1777449319 | 13.33° C | 38% | 1009.8 hPa | 0 mm | - | 119 W/m² | - |
| 1777448419 | 12.78° C | 38% | 1009.8 hPa | 0 mm | - | 124 W/m² | - |
| 1777448119 | 12.78° C | 39% | 1009.8 hPa | 0 mm | - | 125 W/m² | - |
| 1777447820 | 12.78° C | 40% | 1009.8 hPa | 0 mm | - | 118 W/m² | - |
* Rain latest hour (hover to see other rain measurements)
** Current wind speed in m/s (hover to see current wind gust speed)